This is the latest recevied weather packets stored in our database for station/object OK2JF-6. If no packets are shown the sender has not sent any weather packets the latest 10 day(s).
| Time | Temp. | Humidity | Pressure | Rain* | Wind** | Luminosity | Snow |
|---|---|---|---|---|---|---|---|
| 1777918803 | 19.44° C | 49% | 1084.5 hPa | 0 mm | - | 1 W/m² | - |
| 1777918503 | 19.44° C | 48% | 1084.2 hPa | 0 mm | - | 1 W/m² | - |
| 1777917964 | 19.44° C | 48% | 1084.3 hPa | 0 mm | - | 3 W/m² | - |
| 1777917064 | 20° C | 48% | 1084.5 hPa | 0 mm | - | 7 W/m² | - |
| 1777916884 | 20.56° C | 48% | 1084.2 hPa | 0 mm | - | 8 W/m² | - |
| 1777916643 | 20.56° C | 48% | 1084.4 hPa | 0 mm | - | 10 W/m² | - |
| 1777916164 | 20.56° C | 47% | 1084.6 hPa | 0 mm | - | 15 W/m² | - |
| 1777915923 | 20.56° C | 48% | 1084.2 hPa | 0 mm | - | 17 W/m² | - |
| 1777915263 | 21.11° C | 47% | 1084.4 hPa | 0 mm | - | 25 W/m² | - |
| 1777914917 | 21.67° C | 47% | 1084.3 hPa | 0 mm | - | 29 W/m² | - |
| 1777914378 | 21.67° C | 47% | 1084.4 hPa | 0 mm | - | 38 W/m² | - |
| 1777914184 | 21.67° C | 47% | 1084.5 hPa | 0 mm | - | 43 W/m² | - |
| 1777913883 | 22.22° C | 47% | 1084.5 hPa | 0 mm | - | 52 W/m² | - |
| 1777913583 | 22.22° C | 47% | 1084.5 hPa | 0 mm | - | 54 W/m² | - |
| 1777913223 | 22.22° C | 46% | 1084.5 hPa | 0 mm | - | 63 W/m² | - |
| 1777913103 | 22.22° C | 45% | 1084.5 hPa | 0 mm | - | 71 W/m² | - |
| 1777912923 | 22.22° C | 46% | 1084.2 hPa | 0 mm | - | 78 W/m² | - |
| 1777912743 | 22.22° C | 46% | 1084.6 hPa | 0 mm | - | 84 W/m² | - |
| 1777912503 | 22.78° C | 45% | 1084.3 hPa | 0 mm | - | 88 W/m² | - |
| 1777912323 | 22.78° C | 44% | 1084.6 hPa | 0 mm | - | 88 W/m² | - |
| 1777911664 | 22.78° C | 43% | 1084.4 hPa | 0 mm | - | 90 W/m² | - |
| 1777911257 | 22.78° C | 43% | 1084.6 hPa | 0 mm | - | 77 W/m² | - |
| 1777911243 | 22.78° C | 43% | 1084.6 hPa | 0 mm | - | 75 W/m² | - |
| 1777911003 | 22.78° C | 43% | 1084.6 hPa | 0 mm | - | 74 W/m² | - |
| 1777910883 | 22.78° C | 43% | 1084.6 hPa | 0 mm | - | 77 W/m² | - |
* Rain latest hour (hover to see other rain measurements)
** Current wind speed in m/s (hover to see current wind gust speed)